Time,TemperatureF,DewpointF,PressureIn,WindDirection,WindDirectionDegrees,WindSpeedMPH,WindSpeedGustMPH,Humidity,HourlyPrecipIn,Conditions,Clouds,dailyrainin,SoftwareType,DateUTC
2013-07-05 00:03:00,60.5,45.2,29.75,West,280,6.9,6.9,57,0.00,CLR,,0.00,WeatherDisplay:10.37,2013-07-05 07:03:00,
2013-07-05 00:08:00,60.8,45.0,29.75,West,275,5.8,5.8,56,0.00,CLR,,0.00,WeatherDisplay:10.37,2013-07-05 07:08:00,
2013-07-05 00:13:00,60.7,44.9,29.75,West,275,3.0,3.0,56,0.00,CLR,,0.00,WeatherDisplay:10.37,2013-07-05 07:13:00,
2013-07-05 00:18:00,60.5,44.2,29.75,West,275,3.5,3.5,55,0.00,CLR,,0.00,WeatherDisplay:10.37,2013-07-05 07:18:00,
2013-07-05 00:23:00,60.6,44.8,29.75,West,275,3.5,3.5,56,0.00,CLR,,0.00,WeatherDisplay:10.37,2013-07-05 07:23:00,
2013-07-05 00:28:00,60.5,44.7,29.75,West,275,3.5,3.5,56,0.00,CLR,,0.00,WeatherDisplay:10.37,2013-07-05 07:28:00,
2013-07-05 00:33:00,60.6,44.3,29.75,West,275,3.5,3.5,55,0.00,CLR,,0.00,WeatherDisplay:10.37,2013-07-05 07:33:00,
2013-07-05 00:38:00,60.8,44.5,29.75,West,275,3.5,3.5,55,0.00,CLR,,0.00,WeatherDisplay:10.37,2013-07-05 07:38:00,
2013-07-05 00:43:00,60.8,44.5,29.75,West,275,3.5,3.5,55,0.00,CLR,,0.00,WeatherDisplay:10.37,2013-07-05 07:43:00,
2013-07-05 00:48:00,60.8,44.0,29.75,West,275,3.5,3.5,54,0.00,CLR,,0.00,WeatherDisplay:10.37,2013-07-05 07:48:00,
2013-07-05 00:53:00,60.9,44.6,29.75,West,275,2.3,2.3,55,0.00,CLR,,0.00,WeatherDisplay:10.37,2013-07-05 07:53:00,
2013-07-05 00:58:00,60.7,44.4,29.75,West,275,3.5,3.5,55,0.00,CLR,,0.00,WeatherDisplay:10.37,2013-07-05 07:58:00,
2013-07-05 01:03:00,60.5,44.2,29.73,West,275,3.5,3.5,55,0.00,CLR,,0.00,WeatherDisplay:10.37,2013-07-05 08:03:00,
2013-07-05 01:08:00,60.4,44.2,29.73,West,275,3.5,3.5,55,0.00,CLR,,0.00,WeatherDisplay:10.37,2013-07-05 08:08:00,
2013-07-05 01:13:00,60.3,44.5,29.73,West,275,4.6,4.6,56,0.00,CLR,,0.00,WeatherDisplay:10.37,2013-07-05 08:13:00,
2013-07-05 01:18:00,60.1,44.3,29.73,West,275,3.5,3.5,56,0.00,CLR,,0.00,WeatherDisplay:10.37,2013-07-05 08:18:00,
2013-07-05 01:23:00,60.1,44.3,29.73,West,275,3.5,3.5,56,0.00,CLR,,0.00,WeatherDisplay:10.37,2013-07-05 08:23:00,
2013-07-05 01:28:00,60.4,44.2,29.73,West,275,3.5,3.5,55,0.00,CLR,,0.00,WeatherDisplay:10.37,2013-07-05 08:28:00,
2013-07-05 01:33:00,60.4,44.2,29.73,West,275,2.3,2.3,55,0.00,CLR,,0.00,WeatherDisplay:10.37,2013-07-05 08:33:00,
2013-07-05 01:38:00,60.2,44.4,29.73,West,275,1.2,1.2,56,0.00,CLR,,0.00,WeatherDisplay:10.37,2013-07-05 08:38:00,
2013-07-05 01:43:00,60.0,44.3,29.73,West,275,1.2,1.2,56,0.00,CLR,,0.00,WeatherDisplay:10.37,2013-07-05 08:43:00,
2013-07-05 01:48:00,59.8,44.1,29.73,West,275,0.0,0.0,56,0.00,CLR,,0.00,WeatherDisplay:10.37,2013-07-05 08:48:00,
2013-07-05 01:53:00,59.8,43.6,29.73,West,275,1.2,0.0,55,0.00,CLR,,0.00,WeatherDisplay:10.37,2013-07-05 08:53:00,
2013-07-05 01:58:00,59.7,43.5,29.73,West,275,1.2,1.2,55,0.00,CLR,,0.00,WeatherDisplay:10.37,2013-07-05 08:58:00,
2013-07-05 02:04:00,59.8,44.1,29.74,West,275,1.2,1.2,56,0.00,CLR,,0.00,WeatherDisplay:10.37,2013-07-05 09:04:00,
2013-07-05 02:09:00,59.9,44.2,29.74,West,275,0.0,0.0,56,0.00,CLR,,0.00,WeatherDisplay:10.37,2013-07-05 09:09:00,
2013-07-05 02:15:00,59.8,44.1,29.74,West,275,0.0,0.0,56,0.00,CLR,,0.00,WeatherDisplay:10.37,2013-07-05 09:15:00,
2013-07-05 02:20:00,59.7,44.0,29.74,West,275,1.2,0.0,56,0.00,CLR,,0.00,WeatherDisplay:10.37,2013-07-05 09:20:00,
2013-07-05 02:25:00,59.5,43.8,29.74,West,275,2.3,2.3,56,0.00,CLR,,0.00,WeatherDisplay:10.37,2013-07-05 09:25:00,
2013-07-05 02:30:00,59.3,44.1,29.74,West,275,3.5,3.5,57,0.00,CLR,,0.00,WeatherDisplay:10.37,2013-07-05 09:30:00,
2013-07-05 02:35:00,59.3,44.1,29.74,West,281,3.5,3.5,57,0.00,CLR,,0.00,WeatherDisplay:10.37,2013-07-05 09:35:00,
2013-07-05 02:40:00,59.2,44.0,29.74,NW,323,5.8,5.8,57,0.00,CLR,,0.00,WeatherDisplay:10.37,2013-07-05 09:40:00,
2013-07-05 02:45:00,59.0,43.8,29.73,NW,309,4.6,4.6,57,0.00,CLR,,0.00,WeatherDisplay:10.37,2013-07-05 09:45:00,
2013-07-05 02:51:00,59.0,43.8,29.73,NNW,336,3.5,3.5,57,0.00,CLR,,0.00,WeatherDisplay:10.37,2013-07-05 09:51:00,
2013-07-05 02:57:00,59.0,44.2,29.73,NNW,336,2.3,2.3,58,0.00,CLR,,0.00,WeatherDisplay:10.37,2013-07-05 09:57:00,
2013-07-05 03:02:00,58.6,43.9,29.75,NNW,336,2.3,2.3,58,0.00,CLR,,0.00,WeatherDisplay:10.37,2013-07-05 10:02:00,
2013-07-05 03:07:00,58.2,43.9,29.74,NNW,336,1.2,1.2,59,0.00,CLR,,0.00,WeatherDisplay:10.37,2013-07-05 10:07:00,
2013-07-05 03:12:00,57.7,43.9,29.75,NNW,336,1.2,1.2,60,0.00,CLR,,0.00,WeatherDisplay:10.37,2013-07-05 10:12:00,
2013-07-05 03:17:00,57.2,43.9,29.75,NNW,336,2.3,2.3,61,0.00,CLR,,0.00,WeatherDisplay:10.37,2013-07-05 10:17:00,
2013-07-05 03:23:00,56.8,43.9,29.75,NNW,336,0.0,0.4,62,0.00,CLR,,0.00,WeatherDisplay:10.37,2013-07-05 10:23:00,
2013-07-05 03:28:00,56.5,43.6,29.75,NNW,336,1.2,1.2,62,0.00,CLR,,0.00,WeatherDisplay:10.37,2013-07-05 10:28:00,
2013-07-05 03:33:00,56.2,43.8,29.75,NNW,336,1.2,0.0,63,0.00,CLR,,0.00,WeatherDisplay:10.37,2013-07-05 10:33:00,
2013-07-05 03:39:00,55.9,43.5,29.75,NNW,336,1.2,1.2,63,0.00,CLR,,0.00,WeatherDisplay:10.37,2013-07-05 10:39:00,
2013-07-05 03:44:00,55.7,43.3,29.75,NNW,336,1.2,1.2,63,0.00,CLR,,0.00,WeatherDisplay:10.37,2013-07-05 10:44:00,
2013-07-05 03:49:00,55.5,43.1,29.75,NNW,336,0.0,0.0,63,0.00,CLR,,0.00,WeatherDisplay:10.37,2013-07-05 10:49:00,
2013-07-05 03:55:00,55.2,43.2,29.76,NNW,336,0.0,0.0,64,0.00,CLR,,0.00,WeatherDisplay:10.37,2013-07-05 10:55:00,
2013-07-05 04:00:00,54.9,42.9,29.77,NNW,336,0.0,0.0,64,0.00,CLR,,0.00,WeatherDisplay:10.37,2013-07-05 11:00:00,
2013-07-05 04:06:00,54.6,43.1,29.77,NNW,336,0.0,0.0,65,0.00,CLR,,0.00,WeatherDisplay:10.37,2013-07-05 11:06:00,
2013-07-05 04:11:00,54.4,42.9,29.77,NNW,336,0.0,0.0,65,0.00,CLR,,0.00,WeatherDisplay:10.37,2013-07-05 11:11:00,
2013-07-05 04:16:00,54.3,42.8,29.77,NNW,336,0.0,0.0,65,0.00,CLR,,0.00,WeatherDisplay:10.37,2013-07-05 11:16:00,
2013-07-05 04:21:00,54.2,42.7,29.77,NNW,336,0.0,0.0,65,0.00,CLR,,0.00,WeatherDisplay:10.37,2013-07-05 11:21:00,
2013-07-05 04:26:00,54.1,42.6,29.77,NNW,336,0.0,0.0,65,0.00,CLR,,0.00,WeatherDisplay:10.37,2013-07-05 11:26:00,
2013-07-05 04:32:00,54.0,42.5,29.77,NNW,336,0.0,0.0,65,0.00,CLR,,0.00,WeatherDisplay:10.37,2013-07-05 11:32:00,
2013-07-05 04:37:00,53.9,42.4,29.77,NNW,336,0.0,0.0,65,0.00,CLR,,0.00,WeatherDisplay:10.37,2013-07-05 11:37:00,
2013-07-05 04:42:00,53.8,42.7,29.77,NNW,336,0.0,0.0,66,0.00,CLR,,0.00,WeatherDisplay:10.37,2013-07-05 11:42:00,
2013-07-05 04:47:00,53.5,42.8,29.77,NNW,336,0.0,0.0,67,0.00,CLR,,0.00,WeatherDisplay:10.37,2013-07-05 11:47:00,
2013-07-05 04:52:00,53.4,42.7,29.78,NNW,336,0.0,0.0,67,0.00,CLR,,0.00,WeatherDisplay:10.37,2013-07-05 11:52:00,
2013-07-05 04:57:00,53.2,42.5,29.78,NNW,336,0.0,0.0,67,0.00,CLR,,0.00,WeatherDisplay:10.37,2013-07-05 11:57:00,
2013-07-05 05:02:00,53.1,42.8,29.77,NNW,336,0.0,0.0,68,0.00,CLR,,0.00,WeatherDisplay:10.37,2013-07-05 12:02:00,
2013-07-05 05:09:00,52.5,43.0,29.78,NNW,336,0.0,0.0,70,0.00,CLR,,0.00,WeatherDisplay:10.37,2013-07-05 12:09:00,
2013-07-05 05:14:00,51.7,43.0,29.78,NNW,336,2.3,2.3,72,0.00,CLR,,0.00,WeatherDisplay:10.37,2013-07-05 12:14:00,
2013-07-05 05:20:00,51.2,43.2,29.79,NNW,336,1.2,0.0,74,0.00,CLR,,0.00,WeatherDisplay:10.37,2013-07-05 12:20:00,
2013-07-05 05:25:00,51.2,43.5,29.79,NNW,336,2.3,2.3,75,0.00,CLR,,0.00,WeatherDisplay:10.37,2013-07-05 12:25:00,
2013-07-05 05:30:00,51.7,44.0,29.78,NNW,336,3.5,3.5,75,0.00,CLR,,0.00,WeatherDisplay:10.37,2013-07-05 12:30:00,
2013-07-05 05:35:00,51.9,43.9,29.78,NNW,336,1.2,0.0,74,0.00,CLR,,0.00,WeatherDisplay:10.37,2013-07-05 12:35:00,
2013-07-05 05:41:00,51.4,44.1,29.79,NNW,336,3.5,3.5,76,0.00,CLR,,0.00,WeatherDisplay:10.37,2013-07-05 12:41:00,
2013-07-05 05:46:00,51.7,45.1,29.78,NNW,336,3.5,3.5,78,0.00,CLR,,0.00,WeatherDisplay:10.37,2013-07-05 12:46:00,
2013-07-05 05:51:00,52.7,45.3,29.78,NNW,336,3.5,3.5,76,0.00,CLR,,0.00,WeatherDisplay:10.37,2013-07-05 12:51:00,
2013-07-05 05:56:00,53.7,46.0,29.78,NNW,336,1.2,1.2,75,0.00,CLR,,0.00,WeatherDisplay:10.37,2013-07-05 12:56:00,
2013-07-05 06:02:00,54.8,46.7,29.78,NNW,336,2.3,2.3,74,0.00,CLR,,0.00,WeatherDisplay:10.37,2013-07-05 13:02:00,
2013-07-05 06:07:00,55.8,47.3,29.78,NNW,336,3.5,3.5,73,0.00,CLR,,0.00,WeatherDisplay:10.37,2013-07-05 13:07:00,
2013-07-05 06:12:00,56.8,47.5,29.78,NNW,336,3.5,3.5,71,0.00,CLR,,0.00,WeatherDisplay:10.37,2013-07-05 13:12:00,
2013-07-05 06:17:00,57.4,47.7,29.78,NNW,342,3.5,3.5,70,0.00,CLR,,0.00,WeatherDisplay:10.37,2013-07-05 13:17:00,
2013-07-05 06:22:00,57.7,47.6,29.77,NNW,342,3.5,3.5,69,0.00,CLR,,0.00,WeatherDisplay:10.37,2013-07-05 13:22:00,
2013-07-05 06:27:00,58.2,48.1,29.77,NNW,344,3.5,3.5,69,0.00,CLR,,0.00,WeatherDisplay:10.37,2013-07-05 13:27:00,
2013-07-05 06:32:00,59.0,48.8,29.77,NNW,344,0.0,0.1,69,0.00,CLR,,0.00,WeatherDisplay:10.37,2013-07-05 13:32:00,
2013-07-05 06:38:00,59.4,48.4,29.78,North,351,3.5,3.5,67,0.00,CLR,,0.00,WeatherDisplay:10.37,2013-07-05 13:38:00,
2013-07-05 06:43:00,59.8,48.8,29.76,NNE,27,4.0,4.0,67,0.00,CLR,,0.00,WeatherDisplay:10.37,2013-07-05 13:43:00,
2013-07-05 06:48:00,59.8,48.4,29.77,NNE,19,5.8,5.8,66,0.00,CLR,,0.00,WeatherDisplay:10.37,2013-07-05 13:48:00,
2013-07-05 06:53:00,59.5,48.9,29.77,North,355,5.0,5.0,68,0.00,CLR,,0.00,WeatherDisplay:10.37,2013-07-05 13:53:00,
2013-07-05 06:58:00,59.6,48.6,29.77,NNE,24,6.0,6.0,67,0.00,CLR,,0.00,WeatherDisplay:10.37,2013-07-05 13:58:00,
2013-07-05 07:04:00,59.8,48.4,29.79,North,10,5.0,5.0,66,0.00,CLR,,0.00,WeatherDisplay:10.37,2013-07-05 14:04:00,
2013-07-05 07:09:00,59.7,48.7,29.79,NNE,22,4.6,4.6,67,0.00,CLR,,0.00,WeatherDisplay:10.37,2013-07-05 14:09:00,
2013-07-05 07:14:00,60.2,49.2,29.79,NNE,29,4.6,4.6,67,0.00,CLR,,0.00,WeatherDisplay:10.37,2013-07-05 14:14:00,
2013-07-05 07:20:00,60.6,48.8,29.79,NNE,27,4.6,4.6,65,0.00,CLR,,0.00,WeatherDisplay:10.37,2013-07-05 14:20:00,
2013-07-05 07:25:00,61.2,48.9,29.79,NNW,343,3.5,3.5,64,0.00,CLR,,0.00,WeatherDisplay:10.37,2013-07-05 14:25:00,
2013-07-05 07:31:00,61.4,48.7,29.79,NNE,29,3.5,3.5,63,0.00,CLR,,0.00,WeatherDisplay:10.37,2013-07-05 14:31:00,
2013-07-05 07:36:00,61.6,49.3,29.78,North,10,4.6,4.6,64,0.00,CLR,,0.00,WeatherDisplay:10.37,2013-07-05 14:36:00,
2013-07-05 07:41:00,61.8,49.1,29.78,NNE,19,3.5,3.5,63,0.00,CLR,,0.00,WeatherDisplay:10.37,2013-07-05 14:41:00,
2013-07-05 07:46:00,62.1,50.2,29.78,NNE,24,3.5,3.5,65,0.00,CLR,,0.00,WeatherDisplay:10.37,2013-07-05 14:46:00,
2013-07-05 07:52:00,62.4,49.6,29.78,NNE,29,3.5,3.5,63,0.00,CLR,,0.00,WeatherDisplay:10.37,2013-07-05 14:52:00,
2013-07-05 07:57:00,62.9,49.2,29.78,NNE,17,4.6,4.6,61,0.00,CLR,,0.00,WeatherDisplay:10.37,2013-07-05 14:57:00,
2013-07-05 08:02:00,63.3,49.6,29.80,North,5,3.5,3.5,61,0.00,CLR,,0.00,WeatherDisplay:10.37,2013-07-05 15:02:00,
2013-07-05 08:07:00,63.4,49.7,29.79,North,360,4.0,4.0,61,0.00,CLR,,0.00,WeatherDisplay:10.37,2013-07-05 15:07:00,
2013-07-05 08:12:00,63.4,49.3,29.80,NNE,30,3.5,3.5,60,0.00,CLR,,0.00,WeatherDisplay:10.37,2013-07-05 15:12:00,
2013-07-05 08:17:00,63.7,50.0,29.79,North,355,3.5,3.5,61,0.00,CLR,,0.00,WeatherDisplay:10.37,2013-07-05 15:17:00,
2013-07-05 08:22:00,64.2,50.0,29.79,NW,325,4.6,4.6,60,0.00,CLR,,0.00,WeatherDisplay:10.37,2013-07-05 15:22:00,
2013-07-05 08:27:00,64.3,49.2,29.79,NNW,331,4.6,4.6,58,0.00,CLR,,0.00,WeatherDisplay:10.37,2013-07-05 15:27:00,
2013-07-05 08:32:00,64.0,48.5,29.79,NNW,344,5.8,5.8,57,0.00,CLR,,0.00,WeatherDisplay:10.37,2013-07-05 15:32:00,
2013-07-05 08:37:00,63.9,48.8,29.79,NNW,339,6.9,6.9,58,0.00,CLR,,0.00,WeatherDisplay:10.37,2013-07-05 15:37:00,
2013-07-05 08:42:00,63.8,48.7,29.79,NNW,329,4.6,4.6,58,0.00,CLR,,0.00,WeatherDisplay:10.37,2013-07-05 15:42:00,
2013-07-05 08:43:00,63.8,48.7,29.79,NNW,329,4.6,4.6,58,0.00,CLR,,0.00,WeatherDisplay:10.37,2013-07-05 15:43:00,
2013-07-05 08:48:00,64.1,49.5,29.79,NNW,336,1.2,1.2,59,0.00,CLR,,0.00,WeatherDisplay:10.37,2013-07-05 15:48:00,
2013-07-05 08:49:00,64.3,50.6,29.79,NNE,24,3.5,3.5,61,0.00,CLR,,0.00,WeatherDisplay:10.37,2013-07-05 15:49:00,
2013-07-05 08:54:00,64.8,48.7,29.79,North,355,7.0,7.0,56,0.00,CLR,,0.00,WeatherDisplay:10.37,2013-07-05 15:54:00,
2013-07-05 08:59:00,64.7,50.0,29.79,North,5,5.8,5.8,59,0.00,CLR,,0.00,WeatherDisplay:10.37,2013-07-05 15:59:00,
2013-07-05 09:04:00,65.0,49.9,29.81,NNW,340,5.0,5.0,58,0.00,CLR,,0.00,WeatherDisplay:10.37,2013-07-05 16:04:00,
2013-07-05 09:09:00,64.8,49.7,29.82,NW,323,10.4,10.4,58,0.00,CLR,,0.00,WeatherDisplay:10.37,2013-07-05 16:09:00,
2013-07-05 09:15:00,64.5,50.7,29.82,North,5,5.8,5.8,61,0.00,CLR,,0.00,WeatherDisplay:10.37,2013-07-05 16:15:00,
2013-07-05 09:20:00,64.3,50.6,29.82,NNW,338,6.9,6.9,61,0.00,CLR,,0.00,WeatherDisplay:10.37,2013-07-05 16:20:00,
2013-07-05 09:25:00,64.5,49.8,29.81,NW,309,7.0,7.0,59,0.00,CLR,,0.00,WeatherDisplay:10.37,2013-07-05 16:25:00,
2013-07-05 09:30:00,64.8,51.0,29.81,NW,322,5.0,5.0,61,0.00,CLR,,0.00,WeatherDisplay:10.37,2013-07-05 16:30:00,
2013-07-05 09:35:00,65.3,50.6,29.81,NNW,335,5.8,5.8,59,0.00,CLR,,0.00,WeatherDisplay:10.37,2013-07-05 16:35:00,
2013-07-05 09:40:00,65.2,51.4,29.82,North,349,4.6,4.6,61,0.00,CLR,,0.00,WeatherDisplay:10.37,2013-07-05 16:40:00,
2013-07-05 09:45:00,65.4,51.6,29.81,NW,312,4.0,4.0,61,0.00,CLR,,0.00,WeatherDisplay:10.37,2013-07-05 16:45:00,
2013-07-05 09:50:00,65.8,51.5,29.81,North,355,6.9,6.9,60,0.00,CLR,,0.00,WeatherDisplay:10.37,2013-07-05 16:50:00,
2013-07-05 09:55:00,66.1,52.3,29.81,West,272,5.0,5.0,61,0.00,CLR,,0.00,WeatherDisplay:10.37,2013-07-05 16:55:00,
2013-07-05 10:00:00,66.3,50.6,29.81,North,360,6.9,6.9,57,0.00,CLR,,0.00,WeatherDisplay:10.37,2013-07-05 17:00:00,
2013-07-05 10:05:00,66.7,52.4,29.80,NW,311,5.0,5.0,60,0.00,CLR,,0.00,WeatherDisplay:10.37,2013-07-05 17:05:00,
2013-07-05 10:10:00,67.4,52.1,29.81,North,355,1.2,1.2,58,0.00,CLR,,0.00,WeatherDisplay:10.37,2013-07-05 17:10:00,
2013-07-05 10:15:00,67.9,51.6,29.80,NNE,19,5.8,5.8,56,0.00,CLR,,0.00,WeatherDisplay:10.37,2013-07-05 17:15:00,
2013-07-05 10:20:00,68.0,52.7,29.80,NNE,13,4.6,4.6,58,0.00,CLR,,0.00,WeatherDisplay:10.37,2013-07-05 17:20:00,
2013-07-05 10:25:00,67.9,52.6,29.80,NNE,21,9.2,9.2,58,0.00,CLR,,0.00,WeatherDisplay:10.37,2013-07-05 17:25:00,
2013-07-05 10:30:00,68.1,52.8,29.80,North,5,10.4,10.4,58,0.00,CLR,,0.00,WeatherDisplay:10.37,2013-07-05 17:30:00,
2013-07-05 10:35:00,68.4,52.6,29.80,NNW,336,11.5,11.5,57,0.00,CLR,,0.00,WeatherDisplay:10.37,2013-07-05 17:35:00,
2013-07-05 10:40:00,68.0,51.2,29.80,NW,326,11.5,11.5,55,0.00,CLR,,0.00,WeatherDisplay:10.37,2013-07-05 17:40:00,
2013-07-05 10:45:00,67.5,53.1,29.79,NNE,30,5.8,5.8,60,0.00,CLR,,0.00,WeatherDisplay:10.37,2013-07-05 17:45:00,
2013-07-05 10:50:00,68.0,51.7,29.80,West,275,11.5,11.5,56,0.00,CLR,,0.00,WeatherDisplay:10.37,2013-07-05 17:50:00,
2013-07-05 10:55:00,67.6,53.2,29.79,NNW,342,6.9,6.9,60,0.00,CLR,,0.00,WeatherDisplay:10.37,2013-07-05 17:55:00,
2013-07-05 11:00:00,67.8,51.5,29.78,WNW,292,10.4,10.4,56,0.00,CLR,,0.00,WeatherDisplay:10.37,2013-07-05 18:00:00,
2013-07-05 11:05:00,68.2,52.4,29.78,NNW,347,5.0,5.0,57,0.00,CLR,,0.00,WeatherDisplay:10.37,2013-07-05 18:05:00,
2013-07-05 11:10:00,68.3,52.9,29.78,NW,325,6.9,6.9,58,0.00,CLR,,0.00,WeatherDisplay:10.37,2013-07-05 18:10:00,
2013-07-05 11:15:00,68.4,52.1,29.78,NW,315,7.0,7.0,56,0.00,CLR,,0.00,WeatherDisplay:10.37,2013-07-05 18:15:00,
2013-07-05 11:20:00,68.5,51.7,29.78,NNW,337,10.4,10.4,55,0.00,CLR,,0.00,WeatherDisplay:10.37,2013-07-05 18:20:00,
2013-07-05 11:25:00,68.8,52.0,29.77,NNE,12,5.8,5.8,55,0.00,CLR,,0.00,WeatherDisplay:10.37,2013-07-05 18:25:00,
2013-07-05 11:30:00,69.0,52.6,29.77,NNE,15,11.5,11.5,56,0.00,CLR,,0.00,WeatherDisplay:10.37,2013-07-05 18:30:00,
2013-07-05 11:35:00,68.8,52.5,29.77,NW,304,9.2,9.2,56,0.00,CLR,,0.00,WeatherDisplay:10.37,2013-07-05 18:35:00,
2013-07-05 11:40:00,68.7,51.4,29.78,NNE,30,9.2,9.2,54,0.00,CLR,,0.00,WeatherDisplay:10.37,2013-07-05 18:40:00,
2013-07-05 11:45:00,68.8,53.4,29.77,NNW,346,3.5,3.5,58,0.00,CLR,,0.00,WeatherDisplay:10.37,2013-07-05 18:45:00,
2013-07-05 11:50:00,69.5,52.6,29.76,NW,310,3.5,3.5,55,0.00,CLR,,0.00,WeatherDisplay:10.37,2013-07-05 18:50:00,
2013-07-05 11:55:00,70.1,54.2,29.76,WNW,303,2.3,2.3,57,0.00,CLR,,0.00,WeatherDisplay:10.37,2013-07-05 18:55:00,
2013-07-05 12:00:00,70.6,53.1,29.76,West,275,6.9,6.9,54,0.00,CLR,,0.00,WeatherDisplay:10.37,2013-07-05 19:00:00,
2013-07-05 12:05:00,70.7,52.7,29.76,NW,304,6.0,6.0,53,0.00,CLR,,0.00,WeatherDisplay:10.37,2013-07-05 19:05:00,
2013-07-05 12:10:00,70.7,52.2,29.76,NE,48,5.8,5.8,52,0.00,CLR,,0.00,WeatherDisplay:10.37,2013-07-05 19:10:00,
2013-07-05 12:15:00,70.8,52.3,29.76,NW,317,10.4,10.4,52,0.00,CLR,,0.00,WeatherDisplay:10.37,2013-07-05 19:15:00,
2013-07-05 12:20:00,70.8,53.3,29.76,NNW,342,11.5,11.5,54,0.00,CLR,,0.00,WeatherDisplay:10.37,2013-07-05 19:20:00,
2013-07-05 12:25:00,71.1,53.1,29.75,North,355,8.1,8.1,53,0.00,CLR,,0.00,WeatherDisplay:10.37,2013-07-05 19:25:00,
2013-07-05 12:30:00,71.4,52.3,29.75,NW,322,11.5,11.5,51,0.00,CLR,,0.00,WeatherDisplay:10.37,2013-07-05 19:30:00,
2013-07-05 12:35:00,71.3,52.2,29.75,NW,325,11.5,11.5,51,0.00,CLR,,0.00,WeatherDisplay:10.37,2013-07-05 19:35:00,
2013-07-05 12:40:00,71.1,53.1,29.75,NW,305,10.4,10.4,53,0.00,CLR,,0.00,WeatherDisplay:10.37,2013-07-05 19:40:00,
2013-07-05 12:45:00,71.4,53.9,29.75,NNE,17,10.4,10.4,54,0.00,CLR,,0.00,WeatherDisplay:10.37,2013-07-05 19:45:00,
2013-07-05 12:50:00,71.3,52.2,29.75,NNE,15,10.4,10.4,51,0.00,CLR,,0.00,WeatherDisplay:10.37,2013-07-05 19:50:00,
2013-07-05 12:55:00,71.2,52.1,29.75,NNE,21,6.0,6.0,51,0.00,CLR,,0.00,WeatherDisplay:10.37,2013-07-05 19:55:00,
2013-07-05 13:00:00,71.0,52.5,29.76,NNW,331,11.5,11.5,52,0.00,CLR,,0.00,WeatherDisplay:10.37,2013-07-05 20:00:00,
2013-07-05 13:05:00,71.2,52.1,29.76,NNW,330,8.1,8.1,51,0.00,CLR,,0.00,WeatherDisplay:10.37,2013-07-05 20:05:00,
2013-07-05 13:10:00,71.3,52.2,29.75,NNW,333,3.5,3.5,51,0.00,CLR,,0.00,WeatherDisplay:10.37,2013-07-05 20:10:00,
2013-07-05 13:15:00,71.4,52.9,29.75,WNW,294,5.8,5.8,52,0.00,CLR,,0.00,WeatherDisplay:10.37,2013-07-05 20:15:00,
2013-07-05 13:20:00,71.9,53.3,29.75,WNW,294,3.5,3.5,52,0.00,CLR,,0.00,WeatherDisplay:10.37,2013-07-05 20:20:00,
2013-07-05 13:25:00,72.4,51.6,29.75,NW,310,11.5,11.5,48,0.00,CLR,,0.00,WeatherDisplay:10.37,2013-07-05 20:25:00,
2013-07-05 13:30:00,72.8,52.5,29.74,NW,317,5.8,5.8,49,0.00,CLR,,0.00,WeatherDisplay:10.37,2013-07-05 20:30:00,
2013-07-05 13:36:00,72.8,53.1,29.75,NNW,334,8.0,8.0,50,0.00,CLR,,0.00,WeatherDisplay:10.37,2013-07-05 20:36:00,
2013-07-05 13:41:00,73.0,53.8,29.75,WNW,303,5.8,5.8,51,0.00,CLR,,0.00,WeatherDisplay:10.37,2013-07-05 20:41:00,
2013-07-05 13:46:00,73.0,53.3,29.75,WNW,286,6.9,6.9,50,0.00,CLR,,0.00,WeatherDisplay:10.37,2013-07-05 20:46:00,
2013-07-05 13:51:00,72.4,53.2,29.74,NNW,334,3.5,3.5,51,0.00,CLR,,0.00,WeatherDisplay:10.37,2013-07-05 20:51:00,
2013-07-05 13:56:00,72.4,51.0,29.75,NNW,333,6.9,6.9,47,0.00,CLR,,0.00,WeatherDisplay:10.37,2013-07-05 20:56:00,
2013-07-05 14:01:00,72.6,52.3,29.74,WNW,300,3.5,3.5,49,0.00,CLR,,0.00,WeatherDisplay:10.37,2013-07-05 21:01:00,
2013-07-05 14:06:00,72.6,51.8,29.74,North,11,10.4,10.4,48,0.00,CLR,,0.00,WeatherDisplay:10.37,2013-07-05 21:06:00,
2013-07-05 14:11:00,72.5,51.1,29.74,North,351,6.9,6.9,47,0.00,CLR,,0.00,WeatherDisplay:10.37,2013-07-05 21:11:00,
2013-07-05 14:16:00,72.3,52.6,29.74,WNW,286,7.0,7.0,50,0.00,CLR,,0.00,WeatherDisplay:10.37,2013-07-05 21:16:00,
2013-07-05 14:21:00,72.4,51.0,29.75,NNW,327,10.4,10.4,47,0.00,CLR,,0.00,WeatherDisplay:10.37,2013-07-05 21:21:00,
2013-07-05 14:26:00,72.6,52.3,29.74,NW,313,3.5,3.5,49,0.00,CLR,,0.00,WeatherDisplay:10.37,2013-07-05 21:26:00,
2013-07-05 14:31:00,73.0,54.3,29.74,NW,305,4.6,4.6,52,0.00,CLR,,0.00,WeatherDisplay:10.37,2013-07-05 21:31:00,
2013-07-05 14:36:00,73.3,51.3,29.74,WSW,248,16.1,16.1,46,0.00,CLR,,0.00,WeatherDisplay:10.37,2013-07-05 21:36:00,
2013-07-05 14:41:00,72.8,52.5,29.74,West,272,12.0,12.0,49,0.00,CLR,,0.00,WeatherDisplay:10.37,2013-07-05 21:41:00,
2013-07-05 14:46:00,72.5,52.2,29.74,WNW,297,9.2,9.2,49,0.00,CLR,,0.00,WeatherDisplay:10.37,2013-07-05 21:46:00,
2013-07-05 14:51:00,72.4,52.2,29.74,WNW,288,3.5,3.5,49,0.00,CLR,,0.00,WeatherDisplay:10.37,2013-07-05 21:51:00,
2013-07-05 14:56:00,72.7,52.4,29.74,NW,310,5.8,5.8,49,0.00,CLR,,0.00,WeatherDisplay:10.37,2013-07-05 21:56:00,
2013-07-05 15:01:00,73.2,52.3,29.75,NW,316,3.5,3.5,48,0.00,CLR,,0.00,WeatherDisplay:10.37,2013-07-05 22:01:00,
2013-07-05 15:06:00,73.6,52.7,29.75,NW,321,5.8,5.8,48,0.00,CLR,,0.00,WeatherDisplay:10.37,2013-07-05 22:06:00,
2013-07-05 15:11:00,73.9,51.8,29.75,NW,309,11.5,11.5,46,0.00,CLR,,0.00,WeatherDisplay:10.37,2013-07-05 22:11:00,
2013-07-05 15:16:00,74.3,52.8,29.75,NNW,328,4.6,4.6,47,0.00,CLR,,0.00,WeatherDisplay:10.37,2013-07-05 22:16:00,
2013-07-05 15:21:00,74.7,51.9,29.74,NNW,329,5.8,5.8,45,0.00,CLR,,0.00,WeatherDisplay:10.37,2013-07-05 22:21:00,
2013-07-05 15:26:00,74.6,51.2,29.75,NW,323,3.5,3.5,44,0.00,CLR,,0.00,WeatherDisplay:10.37,2013-07-05 22:26:00,
2013-07-05 15:31:00,74.2,51.5,29.75,NNW,340,9.2,9.2,45,0.00,CLR,,0.00,WeatherDisplay:10.37,2013-07-05 22:31:00,
2013-07-05 15:36:00,74.1,52.0,29.75,NW,325,10.0,10.0,46,0.00,CLR,,0.00,WeatherDisplay:10.37,2013-07-05 22:36:00,
2013-07-05 15:41:00,73.2,49.4,29.75,NW,323,11.5,11.5,43,0.00,CLR,,0.00,WeatherDisplay:10.37,2013-07-05 22:41:00,
2013-07-05 15:46:00,73.0,51.6,29.75,North,360,11.5,11.5,47,0.00,CLR,,0.00,WeatherDisplay:10.37,2013-07-05 22:46:00,
2013-07-05 15:51:00,73.4,50.2,29.74,NW,313,3.5,3.5,44,0.00,CLR,,0.00,WeatherDisplay:10.37,2013-07-05 22:51:00,
2013-07-05 15:56:00,73.7,50.4,29.74,West,273,4.0,4.0,44,0.00,CLR,,0.00,WeatherDisplay:10.37,2013-07-05 22:56:00,
2013-07-05 16:01:00,73.8,52.3,29.75,WNW,300,5.8,5.8,47,0.00,CLR,,0.00,WeatherDisplay:10.37,2013-07-05 23:01:00,
2013-07-05 16:06:00,74.1,50.8,29.75,NNW,327,3.5,3.5,44,0.00,CLR,,0.00,WeatherDisplay:10.37,2013-07-05 23:06:00,
2013-07-05 16:11:00,73.8,49.3,29.75,NNW,340,6.9,6.9,42,0.00,CLR,,0.00,WeatherDisplay:10.37,2013-07-05 23:11:00,
2013-07-05 16:16:00,73.4,51.9,29.75,NW,318,6.9,6.9,47,0.00,CLR,,0.00,WeatherDisplay:10.37,2013-07-05 23:16:00,
2013-07-05 16:21:00,73.8,50.5,29.75,NE,34,3.5,3.5,44,0.00,CLR,,0.00,WeatherDisplay:10.37,2013-07-05 23:21:00,
2013-07-05 16:26:00,73.7,49.8,29.75,NE,38,16.1,16.1,43,0.00,CLR,,0.00,WeatherDisplay:10.37,2013-07-05 23:26:00,
2013-07-05 16:31:00,73.5,50.2,29.75,West,281,6.9,6.9,44,0.00,CLR,,0.00,WeatherDisplay:10.37,2013-07-05 23:31:00,
2013-07-05 16:37:00,73.4,50.2,29.75,NNW,346,6.9,6.9,44,0.00,CLR,,0.00,WeatherDisplay:10.37,2013-07-05 23:37:00,
2013-07-05 16:42:00,73.2,51.2,29.75,North,360,13.8,13.8,46,0.00,CLR,,0.00,WeatherDisplay:10.37,2013-07-05 23:42:00,
2013-07-05 16:47:00,72.6,49.4,29.75,NW,317,9.2,9.2,44,0.00,CLR,,0.00,WeatherDisplay:10.37,2013-07-05 23:47:00,
2013-07-05 16:52:00,72.4,49.9,29.75,North,355,15.0,15.0,45,0.00,CLR,,0.00,WeatherDisplay:10.37,2013-07-05 23:52:00,
2013-07-05 16:57:00,72.3,49.8,29.76,NW,325,11.5,11.5,45,0.00,CLR,,0.00,WeatherDisplay:10.37,2013-07-05 23:57:00,
2013-07-05 17:02:00,72.2,50.3,29.75,NNW,339,6.0,6.0,46,0.00,CLR,,0.00,WeatherDisplay:10.37,2013-07-06 00:02:00,
2013-07-05 17:07:00,72.0,49.5,29.75,NNE,20,11.5,11.5,45,0.00,CLR,,0.00,WeatherDisplay:10.37,2013-07-06 00:07:00,
2013-07-05 17:12:00,72.0,49.5,29.75,North,350,10.4,10.4,45,0.00,CLR,,0.00,WeatherDisplay:10.37,2013-07-06 00:12:00,
2013-07-05 17:17:00,72.0,50.1,29.75,NW,316,4.6,4.6,46,0.00,CLR,,0.00,WeatherDisplay:10.37,2013-07-06 00:17:00,
2013-07-05 17:22:00,72.3,50.9,29.75,NNE,21,3.5,3.5,47,0.00,CLR,,0.00,WeatherDisplay:10.37,2013-07-06 00:22:00,
2013-07-05 17:27:00,72.6,50.0,29.75,NNW,338,9.2,9.2,45,0.00,CLR,,0.00,WeatherDisplay:10.37,2013-07-06 00:27:00,
2013-07-05 17:33:00,72.5,50.5,29.75,NNW,338,12.7,12.7,46,0.00,CLR,,0.00,WeatherDisplay:10.37,2013-07-06 00:33:00,
2013-07-05 17:38:00,72.3,51.5,29.75,NW,312,10.4,10.4,48,0.00,CLR,,0.00,WeatherDisplay:10.37,2013-07-06 00:38:00,
2013-07-05 17:43:00,72.4,50.4,29.75,NW,317,4.6,5.2,46,0.00,CLR,,0.00,WeatherDisplay:10.37,2013-07-06 00:43:00,
2013-07-05 17:48:00,72.1,50.2,29.75,NW,315,10.4,10.4,46,0.00,CLR,,0.00,WeatherDisplay:10.37,2013-07-06 00:48:00,
2013-07-05 17:53:00,72.0,50.1,29.75,NNW,334,10.4,10.4,46,0.00,CLR,,0.00,WeatherDisplay:10.37,2013-07-06 00:53:00,
2013-07-05 17:58:00,72.0,48.9,29.75,WNW,302,11.5,11.5,44,0.00,CLR,,0.00,WeatherDisplay:10.37,2013-07-06 00:58:00,
2013-07-05 18:03:00,71.8,49.3,29.73,NW,318,5.8,5.8,45,0.00,CLR,,0.00,WeatherDisplay:10.37,2013-07-06 01:03:00,
2013-07-05 18:08:00,71.5,49.0,29.73,NW,318,5.8,5.8,45,0.00,CLR,,0.00,WeatherDisplay:10.37,2013-07-06 01:08:00,
2013-07-05 18:13:00,71.2,48.2,29.73,NW,323,9.2,9.2,44,0.00,CLR,,0.00,WeatherDisplay:10.37,2013-07-06 01:13:00,
2013-07-05 18:18:00,71.0,49.2,29.73,NNW,334,5.8,5.8,46,0.00,CLR,,0.00,WeatherDisplay:10.37,2013-07-06 01:18:00,
2013-07-05 18:23:00,71.1,48.7,29.73,NW,306,3.5,3.5,45,0.00,CLR,,0.00,WeatherDisplay:10.37,2013-07-06 01:23:00,
2013-07-05 18:28:00,71.3,48.3,29.74,NNW,348,3.5,3.5,44,0.00,CLR,,0.00,WeatherDisplay:10.37,2013-07-06 01:28:00,
2013-07-05 18:33:00,71.3,47.0,29.74,NNW,342,11.5,11.5,42,0.00,CLR,,0.00,WeatherDisplay:10.37,2013-07-06 01:33:00,
2013-07-05 18:34:00,71.2,46.9,29.74,NW,310,10.4,10.4,42,0.00,CLR,,0.00,WeatherDisplay:10.37,2013-07-06 01:34:00,
2013-07-05 18:39:00,70.9,46.7,29.74,NW,323,6.9,6.9,42,0.00,CLR,,0.00,WeatherDisplay:10.37,2013-07-06 01:39:00,
2013-07-05 18:44:00,70.7,47.1,29.74,NNW,341,6.9,6.9,43,0.00,CLR,,0.00,WeatherDisplay:10.37,2013-07-06 01:44:00,
2013-07-05 18:49:00,70.6,47.0,29.74,NNW,346,6.9,6.9,43,0.00,CLR,,0.00,WeatherDisplay:10.37,2013-07-06 01:49:00,
2013-07-05 18:54:00,70.2,46.6,29.74,NNW,337,6.9,6.9,43,0.00,CLR,,0.00,WeatherDisplay:10.37,2013-07-06 01:54:00,
2013-07-05 18:59:00,69.7,46.2,29.73,NW,320,5.8,5.8,43,0.00,CLR,,0.00,WeatherDisplay:10.37,2013-07-06 01:59:00,
2013-07-05 19:04:00,69.4,46.5,29.74,NNW,341,6.9,6.9,44,0.00,CLR,,0.00,WeatherDisplay:10.37,2013-07-06 02:04:00,
2013-07-05 19:09:00,68.8,46.6,29.74,North,360,1.2,0.0,45,0.00,CLR,,0.00,WeatherDisplay:10.37,2013-07-06 02:09:00,
2013-07-05 19:14:00,68.3,46.1,29.75,NNW,334,4.6,4.6,45,0.00,CLR,,0.00,WeatherDisplay:10.37,2013-07-06 02:14:00,
2013-07-05 19:19:00,67.9,45.8,29.75,NW,321,6.0,6.0,45,0.00,CLR,,0.00,WeatherDisplay:10.37,2013-07-06 02:19:00,
2013-07-05 19:24:00,67.7,46.2,29.75,NNW,340,3.5,3.5,46,0.00,CLR,,0.00,WeatherDisplay:10.37,2013-07-06 02:24:00,
2013-07-05 19:29:00,67.4,45.9,29.75,NNW,341,6.0,6.0,46,0.00,CLR,,0.00,WeatherDisplay:10.37,2013-07-06 02:29:00,
2013-07-05 19:34:00,66.9,46.0,29.75,NW,320,1.2,1.2,47,0.00,CLR,,0.00,WeatherDisplay:10.37,2013-07-06 02:34:00,
2013-07-05 19:39:00,66.4,45.5,29.75,NW,320,3.5,3.5,47,0.00,CLR,,0.00,WeatherDisplay:10.37,2013-07-06 02:39:00,
2013-07-05 19:44:00,65.9,45.6,29.76,NW,326,1.2,1.2,48,0.00,CLR,,0.00,WeatherDisplay:10.37,2013-07-06 02:44:00,
2013-07-05 19:49:00,65.5,45.8,29.76,NW,326,3.5,3.5,49,0.00,CLR,,0.00,WeatherDisplay:10.37,2013-07-06 02:49:00,
2013-07-05 19:54:00,65.1,46.0,29.76,NW,326,4.6,4.6,50,0.00,CLR,,0.00,WeatherDisplay:10.37,2013-07-06 02:54:00,
2013-07-05 19:59:00,64.8,46.2,29.76,NW,326,3.5,3.5,51,0.00,CLR,,0.00,WeatherDisplay:10.37,2013-07-06 02:59:00,
2013-07-05 20:04:00,64.4,45.3,29.76,NW,326,3.5,3.5,50,0.00,CLR,,0.00,WeatherDisplay:10.37,2013-07-06 03:04:00,
2013-07-05 20:09:00,64.1,45.6,29.77,NW,326,1.2,1.2,51,0.00,CLR,,0.00,WeatherDisplay:10.37,2013-07-06 03:09:00,
2013-07-05 20:14:00,63.8,45.3,29.77,NW,326,2.3,2.3,51,0.00,CLR,,0.00,WeatherDisplay:10.37,2013-07-06 03:14:00,
2013-07-05 20:19:00,63.5,45.0,29.77,NW,326,1.2,0.0,51,0.00,CLR,,0.00,WeatherDisplay:10.37,2013-07-06 03:19:00,
2013-07-05 20:24:00,63.0,45.1,29.77,NW,326,1.2,1.2,52,0.00,CLR,,0.00,WeatherDisplay:10.37,2013-07-06 03:24:00,
2013-07-05 20:29:00,62.6,44.2,29.78,NW,326,3.5,3.5,51,0.00,CLR,,0.00,WeatherDisplay:10.37,2013-07-06 03:29:00,
2013-07-05 20:34:00,62.4,44.5,29.79,NW,326,1.2,0.0,52,0.00,CLR,,0.00,WeatherDisplay:10.37,2013-07-06 03:34:00,
2013-07-05 20:39:00,62.2,43.8,29.79,NW,326,0.0,0.0,51,0.00,CLR,,0.00,WeatherDisplay:10.37,2013-07-06 03:39:00,
2013-07-05 20:44:00,62.0,44.2,29.79,NW,326,1.2,1.2,52,0.00,CLR,,0.00,WeatherDisplay:10.37,2013-07-06 03:44:00,
2013-07-05 20:49:00,61.8,43.5,29.79,NW,326,0.0,0.0,51,0.00,CLR,,0.00,WeatherDisplay:10.37,2013-07-06 03:49:00,
2013-07-05 20:54:00,61.6,43.8,29.79,NW,326,0.0,0.0,52,0.00,CLR,,0.00,WeatherDisplay:10.37,2013-07-06 03:54:00,
2013-07-05 21:00:00,61.2,43.4,29.80,NW,326,0.0,0.0,52,0.00,CLR,,0.00,WeatherDisplay:10.37,2013-07-06 04:00:00,
2013-07-05 21:01:00,61.1,43.3,29.80,NW,326,0.0,0.0,52,0.00,CLR,,0.00,WeatherDisplay:10.37,2013-07-06 04:01:00,
2013-07-05 21:06:00,60.8,44.5,29.80,NW,326,0.0,0.0,55,0.00,CLR,,0.00,WeatherDisplay:10.37,2013-07-06 04:06:00,
2013-07-05 21:11:00,60.2,44.9,29.80,NW,326,2.0,2.0,57,0.00,CLR,,0.00,WeatherDisplay:10.37,2013-07-06 04:11:00,
2013-07-05 21:16:00,59.6,45.7,29.80,NW,326,2.3,2.3,60,0.00,CLR,,0.00,WeatherDisplay:10.37,2013-07-06 04:16:00,
2013-07-05 21:21:00,59.0,44.7,29.81,NW,326,3.5,3.5,59,0.00,CLR,,0.00,WeatherDisplay:10.37,2013-07-06 04:21:00,
2013-07-05 21:26:00,58.5,44.2,29.81,NW,326,0.0,0.0,59,0.00,CLR,,0.00,WeatherDisplay:10.37,2013-07-06 04:26:00,
2013-07-05 21:31:00,58.1,43.8,29.81,NW,326,0.0,0.0,59,0.00,CLR,,0.00,WeatherDisplay:10.37,2013-07-06 04:31:00,
2013-07-05 21:36:00,58.0,44.2,29.81,NW,326,1.0,1.0,60,0.00,CLR,,0.00,WeatherDisplay:10.37,2013-07-06 04:36:00,
2013-07-05 21:41:00,56.9,45.7,29.82,NW,326,3.5,3.5,66,0.00,CLR,,0.00,WeatherDisplay:10.37,2013-07-06 04:41:00,
2013-07-05 21:46:00,55.2,45.2,29.82,NW,326,2.3,2.3,69,0.00,CLR,,0.00,WeatherDisplay:10.37,2013-07-06 04:46:00,
2013-07-05 21:51:00,54.5,44.9,29.83,NW,326,2.3,2.3,70,0.00,CLR,,0.00,WeatherDisplay:10.37,2013-07-06 04:51:00,
2013-07-05 21:56:00,54.5,44.9,29.83,NW,326,2.3,2.3,70,0.00,CLR,,0.00,WeatherDisplay:10.37,2013-07-06 04:56:00,
2013-07-05 22:01:00,54.3,45.1,29.82,NW,326,2.3,2.3,71,0.00,CLR,,0.00,WeatherDisplay:10.37,2013-07-06 05:01:00,
2013-07-05 22:06:00,54.0,44.8,29.82,NW,326,2.0,2.0,71,0.00,CLR,,0.00,WeatherDisplay:10.37,2013-07-06 05:06:00,
2013-07-05 22:11:00,53.2,44.8,29.82,NW,326,2.3,2.3,73,0.00,CLR,,0.00,WeatherDisplay:10.37,2013-07-06 05:11:00,
2013-07-05 22:16:00,52.2,44.9,29.82,NW,326,3.5,3.5,76,0.00,CLR,,0.00,WeatherDisplay:10.37,2013-07-06 05:16:00,
2013-07-05 22:21:00,51.7,44.7,29.82,NW,326,3.5,3.5,77,0.00,CLR,,0.00,WeatherDisplay:10.37,2013-07-06 05:21:00,
2013-07-05 22:26:00,52.0,44.7,29.82,NW,326,3.5,3.5,76,0.00,CLR,,0.00,WeatherDisplay:10.37,2013-07-06 05:26:00,
2013-07-05 22:31:00,51.8,44.5,29.82,NW,326,3.5,3.5,76,0.00,CLR,,0.00,WeatherDisplay:10.37,2013-07-06 05:31:00,
2013-07-05 22:37:00,51.0,44.0,29.83,NW,326,3.5,3.5,77,0.00,CLR,,0.00,WeatherDisplay:10.37,2013-07-06 05:37:00,
2013-07-05 22:42:00,50.2,43.9,29.84,NW,326,3.5,3.5,79,0.00,CLR,,0.00,WeatherDisplay:10.37,2013-07-06 05:42:00,
2013-07-05 22:47:00,50.4,44.5,29.84,NW,326,2.3,2.3,80,0.00,CLR,,0.00,WeatherDisplay:10.37,2013-07-06 05:47:00,
2013-07-05 22:52:00,51.5,44.5,29.83,NW,326,3.5,3.5,77,0.00,CLR,,0.00,WeatherDisplay:10.37,2013-07-06 05:52:00,
2013-07-05 22:57:00,52.6,44.5,29.83,NW,326,4.0,4.0,74,0.00,CLR,,0.00,WeatherDisplay:10.37,2013-07-06 05:57:00,
2013-07-05 23:02:00,53.1,43.9,29.81,NW,326,4.0,4.0,71,0.00,CLR,,0.00,WeatherDisplay:10.37,2013-07-06 06:02:00,
2013-07-05 23:07:00,54.4,43.7,29.82,NW,326,3.5,3.5,67,0.00,CLR,,0.00,WeatherDisplay:10.37,2013-07-06 06:07:00,
2013-07-05 23:12:00,55.5,43.5,29.81,NW,326,2.3,2.3,64,0.00,CLR,,0.00,WeatherDisplay:10.37,2013-07-06 06:12:00,
2013-07-05 23:17:00,55.7,43.7,29.81,NW,326,3.5,3.5,64,0.00,CLR,,0.00,WeatherDisplay:10.37,2013-07-06 06:17:00,
2013-07-05 23:22:00,54.8,43.7,29.81,NW,326,3.5,3.5,66,0.00,CLR,,0.00,WeatherDisplay:10.37,2013-07-06 06:22:00,
2013-07-05 23:27:00,53.9,43.2,29.82,NW,326,3.5,3.5,67,0.00,CLR,,0.00,WeatherDisplay:10.37,2013-07-06 06:27:00,
2013-07-05 23:32:00,54.0,44.1,29.81,NW,326,2.3,2.3,69,0.00,CLR,,0.00,WeatherDisplay:10.37,2013-07-06 06:32:00,
2013-07-05 23:37:00,52.4,42.9,29.82,NW,326,2.3,2.3,70,0.00,CLR,,0.00,WeatherDisplay:10.37,2013-07-06 06:37:00,
2013-07-05 23:42:00,51.3,42.6,29.82,NW,326,2.3,2.3,72,0.00,CLR,,0.00,WeatherDisplay:10.37,2013-07-06 06:42:00,
2013-07-05 23:47:00,51.0,43.0,29.82,NW,326,1.2,0.0,74,0.00,CLR,,0.00,WeatherDisplay:10.37,2013-07-06 06:47:00,
2013-07-05 23:52:00,51.1,42.7,29.82,NW,326,2.0,2.0,73,0.00,CLR,,0.00,WeatherDisplay:10.37,2013-07-06 06:52:00,
2013-07-05 23:57:00,50.1,42.1,29.83,NW,326,3.5,3.5,74,0.00,CLR,,0.00,WeatherDisplay:10.37,2013-07-06 06:57:00,